Location: Altenst�hlen
(53.5567°N, 8.9425°E)
Time: 09:30:24
(UTC+00:00)

SJ 16-02 - Pass Details

Date: 23 October 2019
Orbit: 607 x 616 km, 75.0° (Epoch: 19 November)

Event Time Altitude Azimuth Distance (km) Brightness Sun altitude
Rises 18:48:20 0° 331° (NNW) 2,883 5.4 -23.9°
Reaches altitude 10° 18:50:39 10° 326° (NW) 1,973 4.5 -24.3°
Maximum altitude 18:54:50 45° 254° (WSW) 832 2.3 -24.9°
Enters shadow 18:56:29 31° 202° (SSW) 1,085 2.6 -25.1°
